Asheville, NC

5:47 AM EDT on May 25, 2018 (GMT -0400)
Asheville Regional

Weather History for KAVL - August, 2009

Change the Weather History Date:

Saturday, August 22, 2009

  Actual Average Record
Temperature  
Mean Temperature 73 °F 72 °F  
Max Temperature 81 °F 83 °F 95 °F (1983)
Min Temperature 65 °F 63 °F 48 °F (1981)
Degree Days  
Heating Degree Days 0 0  
Month to date heating degree days 0 0  
Since 1 June heating degree days 0 14  
Since 1 July heating degree days 0 0  
Cooling Degree Days 8 8  
Month to date cooling degree days 184 187  
Year to date cooling degree days 633 697  
Since 1 June cooling degree days 579 639  
Growing Degree Days 23 (Base 50)    
Moisture  
Dew Point 63 °F    
Average Humidity 73    
Maximum Humidity 100    
Minimum Humidity 45    
Precipitation  
Precipitation T in 0.14 in 2.66 in (1967)
Month to date precipitation 3.06 3.12  
Year to date precipitation 33.41 30.33  
Snow  
Snow 0.00 in 0.00 in 0.00 in ()
Month to date snowfall 0.0 0.0  
Since 1 June snowfall 0.0 0.0  
Since 1 July snowfall 0.0 0.0  
Snow Depth 0.00 in    
Sea Level Pressure  
Sea Level Pressure 29.87 in    
Wind  
Wind Speed 10 mph (NNW)    
Max Wind Speed 18 mph    
Max Gust Speed 24 mph    
Visibility 10 miles    
Events      
T = Trace of Precipitation, MM = Missing Value Source: NWS Daily Summary

Daily Weather History Graph

Daily Weather History Graph

Search for Another Location

Airport or City:

Astronomy

Aug. 22, 2009 Rise Set
Actual Time 6:55 AM EDT 8:10 PM EDT
Civil Twilight 6:28 AM EDT 8:36 PM EDT
Nautical Twilight 5:56 AM EDT 9:08 PM EDT
Astronomical Twilight 5:23 AM EDT 9:41 PM EDT
Moon 9:26 AM EDT (8/22) 9:18 PM EDT (8/22)
Length of Visible Light 14h 08m
Length of Day
13h 15m
Waxing Crescent, 7% of the Moon is Illuminated
Aug 22
Waxing Crescent
Aug 27
First Quarter
Sep 4
Full
Sep 11
Last Quarter
Sep 18
New

Hourly Weather History & Observations

Time (EDT) Temp. Heat Index Dew Point Humidity Pressure Visibility Wind Dir Wind Speed Gust Speed Precip Events Conditions
12:54 AM 68.0 °F - 66.0 °F 93% 29.91 in 10.0 mi SE 3.5 mph - N/A   Partly Cloudy
1:54 AM 66.9 °F - 66.0 °F 97% 29.89 in 10.0 mi Calm Calm - N/A   Mostly Cloudy
2:54 AM 68.0 °F - 66.0 °F 93% 29.87 in 10.0 mi Calm Calm - N/A   Mostly Cloudy
3:33 AM 68.0 °F - 66.2 °F 94% 29.95 in 10.0 mi Calm Calm - N/A   Partly Cloudy
3:54 AM 66.9 °F - 66.0 °F 97% 29.84 in 10.0 mi NNW 5.8 mph - 0.00 in   Mostly Cloudy
4:54 AM 68.0 °F - 66.0 °F 93% 29.84 in 10.0 mi North 5.8 mph - N/A   Overcast
5:16 AM 68.0 °F - 66.2 °F 94% 29.90 in 10.0 mi North 8.1 mph - N/A   Mostly Cloudy
5:54 AM 68.0 °F - 66.9 °F 96% 29.83 in 10.0 mi NNW 10.4 mph - N/A   Partly Cloudy
6:04 AM 68.0 °F - 66.2 °F 94% 29.91 in 10.0 mi North 5.8 mph - N/A   Scattered Clouds
6:20 AM 68.0 °F - 66.2 °F 94% 29.92 in 10.0 mi North 6.9 mph - N/A   Mostly Cloudy
6:54 AM 69.1 °F - 66.9 °F 93% 29.86 in 10.0 mi North 8.1 mph - N/A   Mostly Cloudy
7:02 AM 69.8 °F - 66.2 °F 88% 29.93 in 10.0 mi North 6.9 mph - N/A   Scattered Clouds
7:54 AM 68.0 °F - 64.9 °F 90% 29.88 in 10.0 mi NNW 9.2 mph - N/A   Mostly Cloudy
8:54 AM 69.1 °F - 64.9 °F 87% 29.89 in 10.0 mi North 9.2 mph - N/A   Overcast
9:54 AM 73.0 °F - 64.9 °F 76% 29.88 in 10.0 mi North 11.5 mph 17.3 mph N/A   Scattered Clouds
10:54 AM 73.9 °F - 63.0 °F 68% 29.88 in 10.0 mi NNW 11.5 mph - N/A   Clear
11:54 AM 75.9 °F - 62.1 °F 62% 29.88 in 10.0 mi NNW 12.7 mph 18.4 mph N/A   Partly Cloudy
12:54 PM 78.1 °F - 60.1 °F 54% 29.86 in 10.0 mi North 13.8 mph 18.4 mph N/A   Clear
1:54 PM 79.0 °F - 60.1 °F 52% 29.84 in 10.0 mi North 11.5 mph - N/A   Clear
2:54 PM 80.1 °F 80.9 °F 60.1 °F 50% 29.82 in 10.0 mi NNW 11.5 mph 18.4 mph N/A   Clear
3:54 PM 80.1 °F 80.6 °F 57.9 °F 47% 29.80 in 10.0 mi NNW 10.4 mph 20.7 mph N/A   Partly Cloudy
4:54 PM 80.1 °F 80.6 °F 57.9 °F 47% 29.79 in 10.0 mi NNW 9.2 mph - N/A   Scattered Clouds
5:54 PM 78.1 °F - 59.0 °F 52% 29.80 in 10.0 mi NNW 17.3 mph 23.0 mph N/A   Scattered Clouds
6:54 PM 75.0 °F - 59.0 °F 57% 29.81 in 10.0 mi NNW 15.0 mph 20.7 mph N/A   Overcast
7:54 PM 72.0 °F - 59.0 °F 64% 29.83 in 10.0 mi NNW 11.5 mph - N/A   Overcast
8:54 PM 70.0 °F - 57.0 °F 63% 29.85 in 10.0 mi NW 9.2 mph - N/A   Overcast
9:54 PM 70.0 °F - 57.9 °F 65% 29.86 in 10.0 mi North 8.1 mph - N/A   Overcast
10:54 PM 68.0 °F - 59.0 °F 73% 29.88 in 10.0 mi NNW 9.2 mph - N/A   Mostly Cloudy
11:54 PM 66.9 °F - 59.0 °F 76% 29.89 in 10.0 mi North 5.8 mph - N/A   Overcast